Weather History for Marathon, FL

Change the Weather History Date:

Monday, November 12, 2012

  Actual Average Record
Temperature  
Mean Temperature 79 °F 76 °F  
Max Temperature 83 °F 81 °F 87 °F (2002)
Min Temperature 74 °F 72 °F 67 °F (2011)
Degree Days  
Heating Degree Days 0 0  
Month to date heating degree days 0 0  
Since 1 July heating degree days 0 0  
Cooling Degree Days 14 11  
Month to date cooling degree days 103 143  
Year to date cooling degree days 4861 4582  
Growing Degree Days 28 (Base 50)    
Moisture  
Dew Point 64 °F    
Average Humidity 65    
Maximum Humidity 79    
Minimum Humidity 50    
Precipitation  
Precipitation T in 0.11 in 0.10 in (2008)
Month to date precipitation T 1.37  
Year to date precipitation 43.80 42.70  
Snow  
Snow 0.00 in - - ()
Month to date snowfall 0.0  
Since 1 July snowfall 0.0  
Since 1 September snowfall 0.0  
Snow Depth 0.00 in    
Sea Level Pressure  
Sea Level Pressure 30.12 in    
Wind  
Wind Speed 10 mph (ENE)    
Max Wind Speed 17 mph    
Max Gust Speed 24 mph    
Visibility 10 miles    
Events      
T = Trace of Precipitation, MM = Missing Value Source: NWS Daily Summary

Daily Weather History Graph

Daily Weather History Graph

Search for Another Location

Airport:

Trip Planner

Search our weather history database for the weather conditions in past years. The results will help you decide how hot, cold, wet, or windy it might be!

Date:

Astronomy

Nov. 12, 2012 Rise Set
Actual Time 6:38 AM EST 5:37 PM EST
Civil Twilight 6:14 AM EST 6:01 PM EST
Nautical Twilight 5:47 AM EST 6:29 PM EST
Astronomical Twilight 5:20 AM EST 6:56 PM EST
Moon 5:07 AM EST (11/12) 4:39 PM EST (11/12)
Length of Visible Light 11h 47m
Length of Day
10h 59m
Waning Crescent, 2% of the Moon is Illuminated
Nov 12
Waning Crescent
Nov 13
New
Nov 20
First Quarter
Nov 28
Full
Dec 6
Last Quarter

Hourly Weather History & Observations

Time (EST) Temp. Heat Index Dew Point Humidity Pressure Visibility Wind Dir Wind Speed Gust Speed Precip Events Conditions
12:53 AM 75.9 °F - 61.0 °F 60% 30.16 in 10.0 mi East 8.1 mph - N/A   Scattered Clouds
1:53 AM 75.9 °F - 63.0 °F 64% 30.14 in 10.0 mi East 9.2 mph - N/A   Scattered Clouds
2:53 AM 75.9 °F - 63.0 °F 64% 30.11 in 10.0 mi East 11.5 mph - N/A   Partly Cloudy
3:53 AM 75.9 °F - 64.0 °F 67% 30.10 in 10.0 mi East 9.2 mph - N/A   Scattered Clouds
4:53 AM 75.0 °F - 64.0 °F 69% 30.10 in 10.0 mi ENE 10.4 mph - N/A   Mostly Cloudy
5:09 AM 75.2 °F - 64.4 °F 69% 30.11 in 10.0 mi ENE 9.2 mph - 0.00 in   Mostly Cloudy
5:18 AM 75.2 °F - 62.6 °F 65% 30.11 in 10.0 mi East 11.5 mph 17.3 mph 0.00 in   Scattered Clouds
5:53 AM 75.9 °F - 62.1 °F 62% 30.11 in 10.0 mi East 10.4 mph - 0.00 in   Mostly Cloudy
6:53 AM 75.9 °F - 64.0 °F 67% 30.13 in 10.0 mi East 9.2 mph - N/A   Scattered Clouds
7:53 AM 77.0 °F - 64.0 °F 64% 30.13 in 10.0 mi East 10.4 mph 18.4 mph N/A   Partly Cloudy
8:53 AM 78.1 °F - 64.0 °F 62% 30.15 in 10.0 mi East 11.5 mph - N/A   Clear
9:53 AM 80.1 °F 81.9 °F 64.9 °F 60% 30.16 in 10.0 mi East 11.5 mph 18.4 mph N/A   Partly Cloudy
10:53 AM 81.0 °F 82.5 °F 64.0 °F 56% 30.15 in 10.0 mi East 11.5 mph 20.7 mph N/A   Partly Cloudy
11:53 AM 81.0 °F 82.7 °F 64.9 °F 58% 30.14 in 10.0 mi East 12.7 mph 19.6 mph N/A   Scattered Clouds
12:53 PM 82.9 °F 84.4 °F 64.0 °F 53% 30.13 in 10.0 mi East 10.4 mph 17.3 mph N/A   Partly Cloudy
1:53 PM 82.0 °F 83.4 °F 64.0 °F 54% 30.11 in 10.0 mi East 11.5 mph 18.4 mph N/A   Clear
2:53 PM 81.0 °F 82.5 °F 64.0 °F 56% 30.09 in 10.0 mi East 13.8 mph 20.7 mph N/A   Clear
3:53 PM 81.0 °F 82.5 °F 64.0 °F 56% 30.09 in 10.0 mi ENE 15.0 mph - N/A   Clear
4:53 PM 77.0 °F - 66.0 °F 69% 30.09 in 10.0 mi NE 11.5 mph - N/A   Clear
5:53 PM 75.0 °F - 66.0 °F 73% 30.09 in 10.0 mi NE 8.1 mph - N/A   Clear
6:53 PM 75.0 °F - 66.0 °F 73% 30.11 in 10.0 mi NE 9.2 mph - N/A   Clear
7:53 PM 73.9 °F - 66.0 °F 76% 30.12 in 10.0 mi ENE 8.1 mph - N/A   Clear
8:53 PM 73.9 °F - 66.0 °F 76% 30.12 in 10.0 mi NE 8.1 mph - N/A   Clear
9:53 PM 73.9 °F - 66.0 °F 76% 30.12 in 10.0 mi NNE 6.9 mph - N/A   Partly Cloudy
10:53 PM 73.9 °F - 66.9 °F 79% 30.11 in 10.0 mi ENE 9.2 mph - 0.00 in   Partly Cloudy
11:53 PM 73.9 °F - 66.9 °F 79% 30.09 in 10.0 mi NE 8.1 mph - N/A   Clear